Regional Weather Roundup
Issued by NWS

Home | Current Version | Previous Version | Text Only | Print | Product List | Glossary On
Versions: 1 2 3 4 5 6 7 8 9 10 11 12 13 14 15 16 17 18 19 20 21 22 23 24 25 26 27 28 29 30 31 32 33 34 35 36 37 38 39 40 41 42 43 44 45 46 47 48 49 50
000
ASUS43 KLSX 270710
RWRMO

WEATHER SUMMARY FOR MISSOURI
NATIONAL WEATHER SERVICE SPRINGFIELD MO
200 AM CDT SUN MAY 27 2018

NOTE: "FAIR" INDICATES FEW OR NO CLOUDS BELOW 12,000 FEET WITH NO
       SIGNIFICANT WEATHER AND/OR OBSTRUCTIONS TO VISIBILITY.
       CURRENT SKY AND/OR WEATHER CONDITIONS ARE NOT AVAILABLE FOR
       CHILLICOTHE AND FARMINGTON.

MOZ001>031-035>038-043-044-053-054-270800-
...NORTHERN AND WESTERN MISSOURI...

CITY           SKY/WX    TMP DP  RH WIND       PRES   REMARKS
KANSAS CTY INT CLEAR     71  68  90 S7        29.82F
KANSAS C DTWN  CLEAR     78  67  68 S6        29.81S
LEE`S SUMMIT   CLEAR     76  70  82 SW9       29.84S
ST JOSEPH      CLEAR     76  71  85 SW3       29.80S
CHILLICOTHE      N/A     78  71  79 S5        29.82S
KIRKSVILLE     CLEAR     75  71  87 SW5       29.83R

$$
MOZ066>068-077>081-088>096-101>105-270800-
...SOUTHWEST MISSOURI...

CITY           SKY/WX    TMP DP  RH WIND       PRES   REMARKS
SPRINGFIELD    CLEAR     72  66  81 S7        29.88S
JOPLIN         CLEAR     72  67  84 S7        29.86F
BRANSON        CLEAR     68  68 100 CALM      29.91R

$$
MOZ032>034-039>042-045>050-055>058-069>072-270800-
...CENTRAL MISSOURI...

CITY           SKY/WX    TMP DP  RH WIND       PRES   REMARKS
COLUMBIA       CLEAR     72  68  87 S5        29.85R
JEFFERSON CITY CLEAR     72  69  90 SE5       29.84R
ROLLA          CLEAR     71  67  87 S8        29.89R
SEDALIA        CLEAR     77  71  82 SW6       29.85S
WHITEMAN AFB   PTCLDY    75  71  86 SW6       29.80S
WARRENSBURG    CLEAR     73  68  83 S6        29.83F
OSAGE BEACH    CLEAR     70  69  97 CALM      29.87S

$$
MOZ051-052-059>065-270800-
...EAST CENTRAL MISSOURI...

CITY           SKY/WX    TMP DP  RH WIND       PRES   REMARKS
ST LOUIS INTL  TSTM      72  65  78 SE18G28   29.87R
SPIRIT OF STL  PTCLDY    77  72  84 E12       29.86R
ST CHARLES     CLOUDY    74  67  78 S18G26    29.85F

$$
MOZ072>076-082>087-097>100-106>115-270800-
...SOUTH CENTRAL AND SOUTHEAST MISSOURI...

CITY           SKY/WX    TMP DP  RH WIND       PRES   REMARKS
CAPE GIRARDEAU FAIR      71  69  93 CALM      29.86R
FARMINGTON     PTCLDY    70  68  93 CALM      29.89S
POPLAR BLUFF   FAIR      72  72 100 CALM      29.85R
WEST PLAINS    CLEAR     69  67  93 W3        29.90F

$$




USA.gov is the U.S. government's official web portal to all federal, state and local government web resources and services.